Weather History for Winchester, VA

Change the Weather History Date:

Monday, September 16, 2013

  Actual Average Record
Temperature  
Mean Temperature 62 °F -  
Max Temperature 68 °F 77 °F 93 °F (1998)
Min Temperature 55 °F 56 °F 39 °F (1985)
Degree Days  
Heating Degree Days 2    
Growing Degree Days 12 (Base 50)    
Moisture  
Dew Point 56 °F    
Average Humidity 82    
Maximum Humidity 100    
Minimum Humidity 60    
Precipitation  
Precipitation 0.09 in - - ()
Sea Level Pressure  
Sea Level Pressure 30.15 in    
Wind  
Wind Speed 5 mph (WNW)    
Max Wind Speed 10 mph    
Max Gust Speed -    
Visibility 10 miles    
Events Rain    
Averages and records for this station are not official NWS values.
T = Trace of Precipitation, MM = Missing Value Source: NWS Daily Summary

Daily Weather History Graph

Daily Weather History Graph

Search for Another Location

Airport:

Trip Planner

Search our weather history database for the weather conditions in past years. The results will help you decide how hot, cold, wet, or windy it might be!

Date:

Astronomy

Sep. 16, 2013 Rise Set
Actual Time 6:55 AM EDT 7:18 PM EDT
Civil Twilight 6:28 AM EDT 7:45 PM EDT
Nautical Twilight 5:56 AM EDT 8:17 PM EDT
Astronomical Twilight 5:24 AM EDT 8:49 PM EDT
Moon 5:25 PM EDT (9/16) 3:40 AM EDT (9/16)
Length of Visible Light 13h 17m
Length of Day
12h 23m
Waxing Gibbous, 90% of the Moon is Illuminated
Sep 16
Waxing Gibbous
Sep 19
Full
Sep 26
Last Quarter
Oct 4
New
Oct 11
First Quarter

Hourly Weather History & Observations

Time (EDT) Temp. Dew Point Humidity Pressure Visibility Wind Dir Wind Speed Gust Speed Precip Events Conditions
12:15 AM 64.4 °F 57.2 °F 77% 30.09 in 10.0 mi SSW 4.6 mph - N/A   Mostly Cloudy
12:35 AM 64.4 °F 59.0 °F 83% 30.09 in 10.0 mi WSW 3.5 mph - N/A   Mostly Cloudy
12:55 AM 62.6 °F 59.0 °F 88% 30.09 in 10.0 mi SW 4.6 mph - N/A   Mostly Cloudy
1:15 AM 62.6 °F 57.2 °F 82% 30.08 in 10.0 mi SSW 4.6 mph - N/A   Mostly Cloudy
1:35 AM 62.6 °F 57.2 °F 82% 30.09 in 10.0 mi SW 4.6 mph - N/A   Mostly Cloudy
1:55 AM 62.6 °F 57.2 °F 82% 30.09 in 10.0 mi SW 4.6 mph - N/A   Scattered Clouds
2:15 AM 62.6 °F 59.0 °F 88% 30.08 in 10.0 mi SW 4.6 mph - N/A   Mostly Cloudy
2:35 AM 62.6 °F 59.0 °F 88% 30.08 in 10.0 mi SW 5.8 mph - N/A   Mostly Cloudy
2:55 AM 62.6 °F 59.0 °F 88% 30.08 in 10.0 mi SW 5.8 mph - N/A   Mostly Cloudy
3:15 AM 62.6 °F 59.0 °F 88% 30.07 in 10.0 mi SW 4.6 mph - N/A   Scattered Clouds
3:35 AM 62.6 °F 59.0 °F 88% 30.06 in 10.0 mi SW 5.8 mph - N/A   Clear
3:55 AM 60.8 °F 59.0 °F 94% 30.06 in 10.0 mi SW 5.8 mph - N/A   Clear
4:15 AM 60.8 °F 59.0 °F 94% 30.06 in 10.0 mi SW 5.8 mph - N/A   Clear
4:35 AM 62.6 °F 59.0 °F 88% 30.05 in 10.0 mi SW 8.1 mph - N/A   Clear
4:55 AM 62.6 °F 59.0 °F 88% 30.05 in 10.0 mi SW 9.2 mph - N/A   Clear
5:15 AM 62.6 °F 59.0 °F 88% 30.05 in 10.0 mi SW 8.1 mph - N/A   Clear
5:35 AM 62.6 °F 59.0 °F 88% 30.05 in 10.0 mi SW 6.9 mph - N/A   Scattered Clouds
5:55 AM 62.6 °F 59.0 °F 88% 30.05 in 10.0 mi SW 6.9 mph - N/A   Scattered Clouds
6:15 AM 62.6 °F 59.0 °F 88% 30.06 in 10.0 mi WSW 4.6 mph - N/A   Scattered Clouds
6:35 AM 62.6 °F 59.0 °F 88% 30.06 in 10.0 mi WSW 6.9 mph - N/A   Mostly Cloudy
6:55 AM 62.6 °F 57.2 °F 82% 30.10 in 10.0 mi NNW 6.9 mph - N/A   Overcast
7:15 AM 62.6 °F 57.2 °F 82% 30.11 in 10.0 mi NNW 6.9 mph - N/A   Overcast
7:35 AM 60.8 °F 57.2 °F 88% 30.13 in 7.0 mi North 3.5 mph - N/A Rain Rain
7:55 AM 59.0 °F 59.0 °F 100% 30.13 in 5.0 mi North 3.5 mph - 0.03 in Rain Rain
8:15 AM 59.0 °F 59.0 °F 100% 30.13 in 4.0 mi North 3.5 mph - 0.03 in Rain Rain
8:35 AM 59.0 °F 59.0 °F 100% 30.13 in 7.0 mi Calm Calm - 0.05 in Rain Light Rain
8:55 AM 59.0 °F 59.0 °F 100% 30.15 in 7.0 mi Calm Calm - 0.06 in   Light Drizzle
9:15 AM 59.0 °F 59.0 °F 100% 30.16 in 10.0 mi NNW 4.6 mph - N/A   Mostly Cloudy
9:35 AM 59.0 °F 59.0 °F 100% 30.16 in 10.0 mi Calm Calm - N/A   Overcast
9:55 AM 59.0 °F 59.0 °F 100% 30.17 in 10.0 mi NNW 3.5 mph - N/A   Overcast
10:15 AM 59.0 °F 59.0 °F 100% 30.16 in 10.0 mi Calm Calm - N/A   Overcast
10:35 AM 60.8 °F 59.0 °F 94% 30.16 in 10.0 mi North 3.5 mph - N/A   Overcast
10:55 AM 60.8 °F 59.0 °F 94% 30.17 in 10.0 mi NNW 4.6 mph - N/A   Overcast
11:15 AM 60.8 °F 59.0 °F 94% 30.17 in 10.0 mi NW 8.1 mph - N/A   Overcast
11:35 AM 60.8 °F 59.0 °F 94% 30.17 in 10.0 mi NW 8.1 mph - N/A   Overcast
11:55 AM 60.8 °F 59.0 °F 94% 30.18 in 10.0 mi NNW 8.1 mph - N/A   Overcast
12:15 PM 62.6 °F 59.0 °F 88% 30.17 in 10.0 mi NW 8.1 mph - N/A   Overcast
12:35 PM 62.6 °F 57.2 °F 82% 30.17 in 10.0 mi NNW 6.9 mph - N/A   Overcast
12:55 PM 62.6 °F 57.2 °F 82% 30.17 in 10.0 mi NW 10.4 mph - N/A   Overcast
1:15 PM 64.4 °F 55.4 °F 73% 30.17 in 10.0 mi NNW 6.9 mph - N/A   Overcast
1:35 PM 64.4 °F 55.4 °F 73% 30.17 in 10.0 mi NW 8.1 mph - N/A   Overcast
1:55 PM 66.2 °F 53.6 °F 64% 30.17 in 10.0 mi NW 8.1 mph - N/A   Overcast
2:15 PM 66.2 °F 53.6 °F 64% 30.17 in 10.0 mi NW 9.2 mph - N/A   Overcast
2:35 PM 66.2 °F 53.6 °F 64% 30.17 in 10.0 mi NNW 3.5 mph - N/A   Overcast
2:55 PM 66.2 °F 53.6 °F 64% 30.17 in 10.0 mi NNW 4.6 mph - N/A   Overcast
3:15 PM 64.4 °F 55.4 °F 73% 30.17 in 10.0 mi NW 10.4 mph - N/A   Overcast
3:35 PM 66.2 °F 55.4 °F 68% 30.17 in 10.0 mi NW 5.8 mph - N/A   Overcast
3:55 PM 64.4 °F 53.6 °F 68% 30.17 in 10.0 mi NW 6.9 mph - N/A   Overcast
4:15 PM 66.2 °F 55.4 °F 68% 30.16 in 10.0 mi NW 6.9 mph - N/A   Overcast
4:35 PM 68.0 °F 55.4 °F 64% 30.16 in 10.0 mi NW 8.1 mph - N/A   Overcast
4:55 PM 68.0 °F 55.4 °F 64% 30.16 in 10.0 mi West 8.1 mph - N/A   Scattered Clouds
5:15 PM 68.0 °F 53.6 °F 60% 30.16 in 10.0 mi WNW 8.1 mph - N/A   Scattered Clouds
5:35 PM 68.0 °F 53.6 °F 60% 30.16 in 10.0 mi NNW 4.6 mph - N/A   Scattered Clouds
5:55 PM 68.0 °F 53.6 °F 60% 30.16 in 10.0 mi West 6.9 mph - N/A   Scattered Clouds
6:15 PM 68.0 °F 53.6 °F 60% 30.17 in 10.0 mi WNW 6.9 mph - N/A   Clear
6:35 PM 68.0 °F 53.6 °F 60% 30.17 in 10.0 mi WNW 9.2 mph - N/A   Clear
6:55 PM 66.2 °F 53.6 °F 64% 30.17 in 10.0 mi NW 4.6 mph - N/A   Scattered Clouds
7:15 PM 62.6 °F 53.6 °F 72% 30.17 in 10.0 mi West 3.5 mph - N/A   Mostly Cloudy
7:35 PM 62.6 °F 53.6 °F 72% 30.18 in 10.0 mi NW 3.5 mph - N/A   Scattered Clouds
7:55 PM 60.8 °F 53.6 °F 77% 30.18 in 10.0 mi Calm Calm - N/A   Scattered Clouds
8:15 PM 60.8 °F 53.6 °F 77% 30.19 in 10.0 mi Calm Calm - N/A   Mostly Cloudy
8:35 PM 62.6 °F 53.6 °F 72% 30.20 in 10.0 mi West 3.5 mph - N/A   Overcast
8:55 PM 60.8 °F 53.6 °F 77% 30.21 in 10.0 mi Calm Calm - N/A   Mostly Cloudy
9:15 PM 59.0 °F 53.6 °F 82% 30.22 in 10.0 mi Calm Calm - N/A   Scattered Clouds
9:35 PM 59.0 °F 53.6 °F 82% 30.22 in 10.0 mi WNW 3.5 mph - N/A   Scattered Clouds
9:55 PM 59.0 °F 53.6 °F 82% 30.22 in 10.0 mi WNW 4.6 mph - N/A   Scattered Clouds
10:15 PM 57.2 °F 53.6 °F 88% 30.23 in 10.0 mi WNW 4.6 mph - N/A   Clear
10:35 PM 57.2 °F 53.6 °F 88% 30.23 in 10.0 mi NW 5.8 mph - N/A   Mostly Cloudy
10:55 PM 59.0 °F 53.6 °F 82% 30.23 in 10.0 mi NW 5.8 mph - N/A   Mostly Cloudy
11:15 PM 60.8 °F 53.6 °F 77% 30.24 in 10.0 mi Calm Calm - N/A   Mostly Cloudy
11:35 PM 57.2 °F 53.6 °F 88% 30.25 in 10.0 mi Calm Calm - N/A   Mostly Cloudy
11:55 PM 55.4 °F 53.6 °F 94% 30.25 in 10.0 mi ESE 4.6 mph - N/A   Scattered Clouds